weather.gov     
National Weather Service

Regional Weather Roundup
NWS Homepage
This page is being discontinued on March 12, 2014.
The same data is available at this site. Please update your bookmarks.
Thank you, and we apologize for the inconvenience.
Please send an email to SR-SRH.Webmaster@noaa.gov with any concerns.


Current Version
Previous Version:    01  02  03  04  05  06  07  08  09  10  11  12  13  14  15  16  17  18  19  20  21  22  23  24  25  26  27  
[Printable]
357
ASUS44 KMOB 291810
RWRMOB
REGIONAL WEATHER ROUNDUP
NATIONAL WEATHER SERVICE MOBILE AL
1200 PM CST THU JAN 29 2015

NOTE: "FAIR" INDICATES FEW OR NO CLOUDS BELOW 12,000 FEET WITH NO
      SIGNIFICANT WEATHER AND/OR OBSTRUCTIONS TO VISIBILITY.

  * THESE STATIONS ARE PART OF THE UNIVERSITY OF SOUTH ALABAMA
    MESONET AND ARE NOT UNDER NWS OR FAA QUALITY CONTROL.

ALZ061>064-291900-
COASTAL ALABAMA

CITY           SKY/WX    TMP DP  RH WIND       PRES   REMARKS
MOBILE REG APT MOSUNNY   69  51  52 S14       30.27F
6HR MIN TEMP:  41; 6HR MAX TEMP:  69;

BROOKLEY FIELD MOSUNNY   65  54  67 SE10      30.29F
6HR MIN TEMP:  39; 6HR MAX TEMP:  66; 6HR PCP: TRACE;

USA CAMPUS*    NOT AVBL
DOG RIVER*     NOT AVBL


CITY           SKY/WX    TMP DP  RH WIND       PRES   REMARKS
MOUNT VERNON*  NOT AVBL
SARALAND*      NOT AVBL
BAY MINETTE*   NOT AVBL
LOXLEY*        NOT AVBL
ROBERTSDALE*   NOT AVBL
FAIRHOPE*        N/A     66  54  63 S9        30.27F
ELBERTA*         N/A     66  52  59 S12       30.27F
FOLEY*         NOT AVBL
GRAND BAY*     NOT AVBL
DAUPHIN ISLND* NOT AVBL
BON SCOUR NWR* NOT AVBL
GULF SHORES    SUNNY     67  53  61 S8        30.28F

$$

ALZ051>060-291900-
INTERIOR SOUTHWEST AND SOUTH CENTRAL ALABAMA

CITY           SKY/WX    TMP DP  RH WIND       PRES   REMARKS
GREENVILLE     SUNNY     64  43  46 SW9G20    30.23F
6HR MIN TEMP:  34; 6HR MAX TEMP:  65;

EVERGREEN      SUNNY     64  48  56 S13       30.27F
6HR MIN TEMP:  32; 6HR MAX TEMP:  65; 6HR PCP: TRACE;

CASTLEBERRY*   NOT AVBL
ATMORE*          N/A     66  50  55 S7        30.28F
DIXIE*           N/A     64  48  55 SW6       30.25F
ANDALUSIA/OPP  SUNNY     67  43  41 W7        30.27F
6HR MIN TEMP:  37; 6HR MAX TEMP:  68;

ANDALUSIA*       N/A     63  45  51 S8        30.27F
FLORALA APT    SUNNY     64  46  52 S10       30.28F
6HR MIN TEMP:  35; 6HR MAX TEMP:  64;

FLORALA*         N/A     64  48  55 S6        30.25F

$$

FLZ001>006-291900-
WESTERN FLORIDA PANHANDLE

CITY           SKY/WX    TMP DP  RH WIND       PRES   REMARKS
PENSACOLA      MOSUNNY   66  50  56 S13       30.27F
6HR MIN TEMP:  44; 6HR MAX TEMP:  67;

NAS PENSACOLA  MOSUNNY   68  52  56 S12       30.27F
6HR MIN TEMP:  43; 6HR MAX TEMP:  68;

MILTON         MOSUNNY   67  50  54 S16G25    30.27F
6HR MIN TEMP:  38; 6HR MAX TEMP:  67;

WHTNG S FIELD  MOSUNNY   68  51  54 S15       30.28F
6HR MIN TEMP:  42; 6HR MAX TEMP:  68;



CITY           SKY/WX    TMP DP  RH WIND       PRES   REMARKS
WALNUT HILL*   NOT AVBL
JAY*           NOT AVBL
DUKE FIELD     MOSUNNY   64  51  62 S14       30.27F
CRESTVIEW      MOSUNNY   64  51  62 S13G18    30.29F
6HR MIN TEMP:  31; 6HR MAX TEMP:  64;

VALPARAISO     SUNNY     63  53  67 SE9       30.28F
6HR MIN TEMP:  41; 6HR MAX TEMP:  63;

DESTIN         SUNNY     63  54  72 SE10      30.28F
6HR MIN TEMP:  46; 6HR MAX TEMP:  64;


$$

MSZ076-079-291900-
INTERIOR SOUTHEAST MISSISSIPPI

CITY           SKY/WX    TMP DP  RH WIND       PRES   REMARKS
LEAKESVILLE*   NOT AVBL
AGRICOLA*      NOT AVBL

$$

MARINE OBSERVATIONS

STATION/POSITION TIME  TEMP    WIND        PRES    WAVE
                       AIR SEA DIR/SP/G            HT/PER
                 (UTC) (F)     (DEG/KT/KT) (MB)    (FT/S)
PASCAGOULA       1800   62     170/  6/  7 1025.1F
PETIT BOIS ISLND 1800   65     200/  2/  3 1025.6F
GRAND BAY        1700   60     140/  5     1026.0S
KATRINA CUT      1700   61     150/  7     1026.4R
CEDAR POINT      1700   61     170/  9     1025.4F
E DAUPHIN ISLAND 1700   62     160/  9/  9 1025.2F
MIDDLE BAY LIGHT 1700   59     170/  5     1024.7S
USCG MOBILE BAY  1800   59 53  160/  5/  8 1024.2F
STATE DOCKS      1800   61 50              1025.1F
MEAHER PARK      1700   60     190/  9     1025.4F
WEEKS BAY        1700   66                   N/A
FORT MORGAN      1800   64     170/  5/  7 1025.0S
12 S ORANGE BCH  1800   64 63  180/  8/ 10 1024.7F   2/ 4
PENSACOLA BAY    1800   65 58  180/  3/  5 1025.6F
64 S DAUPHIN ISL 1654   66 69  180/  8/ 12 1025.4S   2/ 4

$$

SELECTED LOCATIONS ACROSS THE REGION

CITY           SKY/WX    TMP DP  RH WIND       PRES   REMARKS
NEW ORLEANS    MOSUNNY   71  57  61 SW8       30.26F
GULFPORT       SUNNY     68  51  54 S7        30.27F
PASCAGOULA AP  SUNNY     70  52  52 S9G17     30.27F
PASCAGOULA*    NOT AVBL
HATTIESBURG    MOSUNNY   71  52  50 SW9G22    30.23F
LAUREL         SUNNY     72  54  53 SW8       30.23F
MERIDIAN       SUNNY     69  50  50 SW14G26   30.19F
JACKSON        MOSUNNY   72  52  49 SW14G22   30.17F
MONTGOMERY     SUNNY     64  42  44 S12       30.24F
TROY           SUNNY     61  37  41 SW9       30.27F
KINSTON*       NOT AVBL
GENEVA*        NOT AVBL
ASHFORD*         N/A     63  45  51 S8        30.27F
DOTHAN         SUNNY     61  41  47 S13       30.31F
PANAMA CITY    SUNNY     61  49  64 SE14G20   30.29F

$$





U.S. Dept. of Commerce
NOAA National Weather Service
1325 East West Highway
Silver Spring, MD 20910
E-mail: w-nws.webmaster@noaa.gov
Page last modified: May 16, 2007
NATIONAL WEATHER SERVICE: for Safety, for Work, for Fun - FOR LIFE